Regional Weather Roundup
Issued by NWS Binghamton, NY

Home | Current Version | Previous Version | Text Only | Print | Product List | Glossary On
Versions: 1 2 3 4 5 6 7 8 9 10 11 12 13 14 15 16 17 18 19 20 21 22 23 24 25 26 27
000
ASUS41 KBGM 181210
RWRBGM

REGIONAL WEATHER ROUNDUP
NATIONAL WEATHER SERVICE BINGHAMTON NY
700 AM EST SAT NOV 18 2017

Note: "fair" indicates few or no clouds below 12,000 feet with no
significant weather and/or obstructions to visibility.

* = Station(s) that does not report precipitation, such as rain,
snow, etc, also no thunder or fog.

NYZ009-015>018-022>025-036-037-044>046-055>057-062-181300
...Central New York...

CITY           SKY/WX    TMP DP  RH WIND       PRES   REMARKS
Binghamton     CLOUDY    32  21  64 S7        29.78F WCI  26
Cortland       FAIR      32  25  74 NE5       29.78F WCI  27
Dansville      LGT RAIN  43  27  53 S6        29.69F
Elmira         CLOUDY    31  27  85 CALM      29.77F
Seneca Falls   PTSUNNY   39  27  60 S14G24    29.74R WCI  31
Ithaca         CLOUDY    37  23  56 SE14      29.77F WCI  28
Hamilton       CLEAR     32  21  64 S9        29.79F WCI  24
Hornell        CLOUDY    39  27  60 SE5       29.73F
Monticello     CLOUDY    22  19  89 CALM      29.90F
Penn Yan       CLOUDY    41  24  51 S14G23    29.72F
Rome           CLOUDY    28  20  71 SE9       29.82F WCI  19
Sidney         CLEAR     21  21 100 CALM      29.83F
Syracuse       CLOUDY    29  22  75 E10       29.73F WCI  20
$$

PAZ038>040-043-044-047-048-072-181300
...Northeast Pennsylvania...

CITY           SKY/WX    TMP DP  RH WIND       PRES   REMARKS
Hazleton       CLOUDY    36  23  60 SE6       29.88F WCI  31
Scranton       CLOUDY    33  24  69 NE5       29.87F WCI  29
$$
&&
KEY
WCI = Wind Chill Index
VSB = Visibility
HX  = Heat Index
$$




USA.gov is the U.S. government's official web portal to all federal, state and local government web resources and services.